Location: Gradaro
(45.0833°N, 10.8833°E)
Time: 14:32:33
(UTC+00:00)

Cosmos 1844 Rocket - Pass Details

Date: 29 November 2020
Orbit: 824 x 845 km, 71.0° (Epoch: 23 January)

Event Time Altitude Azimuth Distance (km) Brightness Sun altitude
Rises 04:08:51 0° 185° (S) 3,371 5.9 -24.8°
Reaches altitude 10° 04:11:21 10° 180° (S) 2,444 5.2 -24.3°
Maximum altitude 04:16:41 46° 108° (ESE) 1,114 3.7 -23.4°
Drops below altitude 10° 04:22:04 10° 36° (NE) 2,471 5.5 -22.5°
Sets 04:24:36 0° 31° (NNE) 3,412 6.1 -22.0°
